When you browse on this site, cookies collect data to enhance your experience and personalize the content and advertising you see.
Visit our Privacy Policy to learn more. By continuing to use the site, you agree to this use of cookies and data.
  • In Deutschland
  • Länderverzeichnis
  • Für 7 Tage
  • Wassertemperatur
  • Satellitenkarten
  • Wetterkarte
  • Widgets
  • user-avatar
    Anmelden

    Stündliche Wetter Giumri

    Heute, 19 Juli, Freitag

    Zeit Temperatur Niederschläge Wind Luftdruck Luftfeuchtigkeit
    00:00 +18°C° 0 mm 2 m/S 632 mmHg 73%
    01:00 +17°C° 0 mm 2 m/S 632 mmHg 75%
    02:00 +17°C° 0 mm 2 m/S 632 mmHg 77%
    03:00 +16°C° 0 mm 2 m/S 632 mmHg 81%
    04:00 +17°C° 0 mm 2 m/S 633 mmHg 81%
    05:00 +17°C° 0 mm 2 m/S 633 mmHg 82%
    06:00 +17°C° 0 mm 2 m/S 633 mmHg 82%
    07:00 +19°C° 0 mm 2 m/S 634 mmHg 76%
    08:00 +21°C° 0 mm 2 m/S 635 mmHg 70%
    09:00 +24°C° 0 mm 2 m/S 635 mmHg 63%
    10:00 +25°C° 0.1 mm 2 m/S 636 mmHg 59%
    11:00 +26°C° 0.1 mm 3 m/S 636 mmHg 54%
    12:00 +28°C° 0.1 mm 3 m/S 636 mmHg 50%
    13:00 +27°C° 0.2 mm 4 m/S 636 mmHg 51%
    14:00 +27°C° 0.2 mm 4 m/S 636 mmHg 53%
    15:00 +27°C° 0.2 mm 5 m/S 635 mmHg 55%
    16:00 +26°C° 0.3 mm 5 m/S 635 mmHg 59%
    17:00 +25°C° 0.3 mm 5 m/S 635 mmHg 63%
    18:00 +23°C° 0.3 mm 4 m/S 635 mmHg 67%
    19:00 +22°C° 0.1 mm 4 m/S 635 mmHg 72%
    20:00 +20°C° 0.1 mm 4 m/S 635 mmHg 78%
    21:00 +18°C° 0.1 mm 3 m/S 635 mmHg 84%
    22:00 +18°C° 0 mm 3 m/S 635 mmHg 85%
    23:00 +18°C° 0 mm 3 m/S 636 mmHg 86%

    Morgen, 20 Juli, Samstag

    Zeit Temperatur Niederschläge Wind Luftdruck Luftfeuchtigkeit
    00:00 +17°C° 0 mm 3 m/S 636 mmHg 87%
    01:00 +17°C° 0 mm 3 m/S 636 mmHg 88%
    02:00 +17°C° 0 mm 3 m/S 636 mmHg 88%
    03:00 +16°C° 0 mm 2 m/S 636 mmHg 89%
    04:00 +17°C° 0 mm 2 m/S 636 mmHg 88%
    05:00 +17°C° 0 mm 2 m/S 636 mmHg 87%
    06:00 +17°C° 0 mm 2 m/S 636 mmHg 86%
    07:00 +19°C° 0 mm 2 m/S 637 mmHg 79%
    08:00 +21°C° 0 mm 2 m/S 637 mmHg 73%
    09:00 +24°C° 0 mm 3 m/S 638 mmHg 66%
    10:00 +25°C° 0 mm 3 m/S 638 mmHg 63%
    11:00 +26°C° 0 mm 3 m/S 638 mmHg 59%
    12:00 +28°C° 0 mm 4 m/S 639 mmHg 55%
    13:00 +28°C° 0 mm 4 m/S 638 mmHg 56%
    14:00 +28°C° 0 mm 4 m/S 638 mmHg 56%
    15:00 +28°C° 0 mm 4 m/S 638 mmHg 56%
    16:00 +27°C° 0 mm 4 m/S 637 mmHg 61%
    17:00 +26°C° 0 mm 4 m/S 637 mmHg 65%
    18:00 +25°C° 0 mm 5 m/S 637 mmHg 69%
    19:00 +23°C° 0 mm 4 m/S 637 mmHg 74%
    20:00 +21°C° 0 mm 4 m/S 637 mmHg 79%
    21:00 +19°C° 0 mm 3 m/S 637 mmHg 83%
    22:00 +19°C° 0 mm 3 m/S 637 mmHg 84%
    23:00 +19°C° 0 mm 3 m/S 637 mmHg 84%

    übermorgen, 21 Juli, Sonntag

    Zeit Temperatur Niederschläge Wind Luftdruck Luftfeuchtigkeit
    00:00 +18°C° 0 mm 3 m/S 637 mmHg 85%
    01:00 +18°C° 0 mm 3 m/S 637 mmHg 84%
    02:00 +17°C° 0 mm 3 m/S 637 mmHg 84%
    03:00 +17°C° 0 mm 3 m/S 636 mmHg 84%
    04:00 +17°C° 0 mm 3 m/S 636 mmHg 83%
    05:00 +17°C° 0 mm 2 m/S 637 mmHg 82%
    06:00 +18°C° 0 mm 2 m/S 637 mmHg 80%
    07:00 +20°C° 0 mm 3 m/S 637 mmHg 74%
    08:00 +22°C° 0 mm 3 m/S 638 mmHg 67%
    09:00 +25°C° 0 mm 3 m/S 638 mmHg 60%
    10:00 +26°C° 0 mm 3 m/S 638 mmHg 57%
    11:00 +27°C° 0 mm 4 m/S 638 mmHg 54%
    12:00 +28°C° 0 mm 4 m/S 639 mmHg 52%
    13:00 +29°C° 0 mm 4 m/S 638 mmHg 52%
    14:00 +29°C° 0 mm 4 m/S 638 mmHg 53%
    15:00 +29°C° 0 mm 4 m/S 637 mmHg 53%
    16:00 +28°C° 0 mm 4 m/S 637 mmHg 57%
    17:00 +27°C° 0 mm 5 m/S 637 mmHg 60%
    18:00 +26°C° 0 mm 5 m/S 637 mmHg 64%
    19:00 +23°C° 0 mm 4 m/S 636 mmHg 67%
    20:00 +21°C° 0 mm 4 m/S 636 mmHg 71%
    21:00 +20°C° 0 mm 4 m/S 636 mmHg 74%
    22:00 +19°C° 0 mm 3 m/S 636 mmHg 74%
    23:00 +19°C° 0 mm 3 m/S 636 mmHg 74%

    22 Juli, Montag

    Zeit Temperatur Niederschläge Wind Luftdruck Luftfeuchtigkeit
    00:00 +18°C° 0 mm 3 m/S 635 mmHg 74%
    01:00 +18°C° 0 mm 3 m/S 635 mmHg 75%
    02:00 +18°C° 0 mm 2 m/S 635 mmHg 75%
    03:00 +17°C° 0 mm 2 m/S 635 mmHg 76%
    04:00 +18°C° 0 mm 2 m/S 635 mmHg 76%
    05:00 +18°C° 0 mm 2 m/S 635 mmHg 75%
    06:00 +18°C° 0 mm 2 m/S 635 mmHg 75%
    07:00 +21°C° 0 mm 2 m/S 636 mmHg 68%
    08:00 +24°C° 0 mm 2 m/S 636 mmHg 61%
    09:00 +26°C° 0 mm 2 m/S 637 mmHg 54%
    10:00 +28°C° 0 mm 3 m/S 637 mmHg 51%
    11:00 +29°C° 0 mm 3 m/S 637 mmHg 48%
    12:00 +31°C° 0 mm 3 m/S 637 mmHg 44%
    13:00 +31°C° 0 mm 3 m/S 637 mmHg 45%
    14:00 +32°C° 0 mm 4 m/S 637 mmHg 47%
    15:00 +32°C° 0 mm 4 m/S 636 mmHg 48%
    16:00 +30°C° 0.1 mm 5 m/S 636 mmHg 53%
    17:00 +29°C° 0.1 mm 5 m/S 635 mmHg 58%
    18:00 +27°C° 0.1 mm 5 m/S 635 mmHg 64%
    19:00 +25°C° 0 mm 5 m/S 635 mmHg 67%
    20:00 +22°C° 0 mm 5 m/S 635 mmHg 71%
    21:00 +20°C° 0 mm 4 m/S 634 mmHg 74%
    22:00 +20°C° 0 mm 4 m/S 634 mmHg 77%
    23:00 +19°C° 0 mm 3 m/S 634 mmHg 79%

    23 Juli, Dienstag

    Zeit Temperatur Niederschläge Wind Luftdruck Luftfeuchtigkeit
    00:00 +18°C° 0 mm 3 m/S 634 mmHg 82%
    01:00 +18°C° 0 mm 2 m/S 634 mmHg 83%
    02:00 +18°C° 0 mm 2 m/S 634 mmHg 84%
    03:00 +17°C° 0 mm 2 m/S 633 mmHg 86%
    04:00 +18°C° 0 mm 2 m/S 633 mmHg 85%
    05:00 +18°C° 0 mm 2 m/S 634 mmHg 84%
    06:00 +18°C° 0 mm 2 m/S 634 mmHg 84%
    07:00 +20°C° 0 mm 2 m/S 634 mmHg 77%
    08:00 +22°C° 0 mm 3 m/S 635 mmHg 69%
    09:00 +25°C° 0 mm 3 m/S 635 mmHg 62%
    10:00 +26°C° 0 mm 3 m/S 635 mmHg 59%
    11:00 +27°C° 0 mm 3 m/S 635 mmHg 57%
    12:00 +28°C° 0 mm 4 m/S 635 mmHg 54%
    13:00 +28°C° 0.1 mm 4 m/S 634 mmHg 55%
    14:00 +28°C° 0.1 mm 4 m/S 634 mmHg 56%
    15:00 +28°C° 0.1 mm 5 m/S 634 mmHg 57%
    16:00 +27°C° 0.3 mm 5 m/S 633 mmHg 60%
    17:00 +26°C° 0.3 mm 4 m/S 633 mmHg 63%
    18:00 +26°C° 0.3 mm 4 m/S 633 mmHg 66%
    19:00 +23°C° 0 mm 4 m/S 633 mmHg 70%
    20:00 +21°C° 0 mm 3 m/S 633 mmHg 74%
    21:00 +19°C° 0 mm 3 m/S 633 mmHg 79%
    22:00 +19°C° 0 mm 3 m/S 633 mmHg 79%
    23:00 +19°C° 0 mm 2 m/S 633 mmHg 80%

    24 Juli, Mittwoch

    Zeit Temperatur Niederschläge Wind Luftdruck Luftfeuchtigkeit
    00:00 +18°C° 0 mm 2 m/S 633 mmHg 80%
    01:00 +18°C° 0 mm 2 m/S 633 mmHg 81%
    02:00 +18°C° 0 mm 2 m/S 632 mmHg 82%
    03:00 +17°C° 0 mm 2 m/S 632 mmHg 84%
    04:00 +19°C° 0 mm 1 m/S 632 mmHg 83%
    05:00 +19°C° 0 mm 1 m/S 632 mmHg 82%
    06:00 +19°C° 0 mm 1 m/S 633 mmHg 81%
    07:00 +22°C° 0.1 mm 1 m/S 633 mmHg 74%
    08:00 +24°C° 0.1 mm 1 m/S 634 mmHg 67%
    09:00 +26°C° 0.1 mm 1 m/S 634 mmHg 59%
    10:00 +28°C° 0.1 mm 2 m/S 634 mmHg 50%
    11:00 +30°C° 0.1 mm 3 m/S 635 mmHg 42%
    12:00 +32°C° 0.1 mm 4 m/S 635 mmHg 33%
    13:00 +33°C° 0 mm 4 m/S 635 mmHg 30%
    14:00 +34°C° 0 mm 4 m/S 635 mmHg 27%
    15:00 +35°C° 0 mm 4 m/S 635 mmHg 24%
    16:00 +33°C° 0.1 mm 4 m/S 635 mmHg 31%
    17:00 +32°C° 0.1 mm 4 m/S 634 mmHg 37%
    18:00 +30°C° 0.1 mm 3 m/S 634 mmHg 43%
    19:00 +27°C° 0 mm 3 m/S 634 mmHg 52%
    20:00 +25°C° 0 mm 3 m/S 633 mmHg 61%
    21:00 +21°C° 0 mm 3 m/S 633 mmHg 69%
    22:00 +20°C° 0 mm 3 m/S 633 mmHg 71%
    23:00 +20°C° 0 mm 3 m/S 633 mmHg 73%
    Mehr zeigen